Regional Weather Roundup
Issued by NWS

Home | Current Version | Previous Version | Graphics & Text | Print | Product List | Glossary On
Versions: 1 2 3 4 5 6 7 8 9 10 11 12 13 14 15 16 17 18 19 20 21 22 23 24 25 26 27 28 29 30 31 32 33 34 35 36 37 38 39 40 41 42 43 44 45 46 47 48 49 50
000
ASUS45 KSLC 271810
RWRUT

UTAH REGIONAL WEATHER ROUNDUP
NATIONAL WEATHER SERVICE SALT LAKE CITY UT
1100 AM MST TUE JAN 27 2015

UTZ001>011-023>025-271900-

NORTHERN UTAH

CITY           SKY/WX    TMP DP  RH WIND       PRES   REMARKS
BRIGHAM CITY   CLOUDY    37  34  89 CALM      30.26R
DUGWAY         PTSUNNY   46  38  74 SE7       30.23
HILL AFB       CLOUDY    43  30  60 SE7       30.24R
LOGAN          MOSUNNY   33  32  96 CALM      30.24R FOG
OGDEN          CLOUDY    41  34  76 S6        30.24R
PROVO AIRPORT  PTSUNNY   46  36  66 CALM      30.26F
SALT LAKE CITY CLOUDY    42  35  76 NE6       30.23S
VERNAL         SUNNY     39  26  59 E5        30.33S
WENDOVER       CLOUDY    37  30  75 NE9       30.21F WCI  31
HEBER CITY     CLOUDY    34  30  86 E5        30.26S WCI  30
WEST JORDAN    CLOUDY    48  36  61 SE13G22   30.24R

$$

UTZ012>022-026-027-271900-

SOUTHERN/CENTRAL UTAH

CITY           SKY/WX    TMP DP  RH WIND       PRES   REMARKS
BLANDING       CLOUDY    43  28  55 NE5       30.44S
BRYCE CANYON   FOG       34  33  96 S9        30.35S VSB 1/2 WCI  27
CEDAR CITY     MOSUNNY   47  42  83 SW12      30.28S
DELTA          PTSUNNY   47  39  71 S8        30.27R
MILFORD        PTSUNNY   46  38  73 SW20      30.27R
MOAB/CYNLANDS  CLOUDY    37  30  75 CALM      30.33S
PRICE          CLOUDY    40  26  57 SE7       30.33R
ST GEORGE      CLOUDY    50  45  81 N6        30.31F
KANAB            N/A     45  39  81 NW7       30.37S

$$

REGIONAL REPORTS     COLORADO/ARIZONA

CITY           SKY/WX    TMP DP  RH WIND       PRES   REMARKS
CRAIG, CO        N/A     29  22  75 SW5       30.31F WCI  24
GRAND JUNCTION CLOUDY    42  27  55 NW8       30.32R
RIFLE          MOSUNNY   39  24  55 CALM      30.33F
MONTROSE       SUNNY     49  26  41 NW5       30.33F
CORTEZ         CLOUDY    48  28  46 SW8       30.37R
PAGE, AZ       NOT AVBL
GRAND CANYON   LGT RAIN  43  41  93 S7        30.36R FOG
KINGMAN        SUNNY     57  46  66 CALM      30.29S
FLAGSTAFF      MOSUNNY   44  36  73 S6        30.37S

$$

REGIONAL REPORTS    NEVADA/IDAHO/WYOMING

CITY           SKY/WX    TMP DP  RH WIND       PRES   REMARKS
LAS VEGAS, NV  PTSUNNY   55  48  77 S3        30.24S
ELY            CLOUDY    41  36  82 S17       30.24R
ELKO           CLOUDY    41  38  89 S3        30.17S
POCATELLO, ID  SUNNY     35  34  96 VRB3      30.16R
BURLEY         PTSUNNY   47  34  60 S8        30.11R
EVANSTON, WY   PTSUNNY   42  25  50 SW8       30.24S
ROCK SPRINGS   MOSUNNY  N/A N/A N/A MISG      30.24S
KEMMERER       PTSUNNY   36  23  60 NW3       30.25S

$$


USA.gov is the U.S. government's official web portal to all federal, state and local government web resources and services.